Simultaneous Nadir Overpasses (SNOs) Predictions

Prediction of SNOs between GOES-16 and AQUA Satellite Orbit:

Table of predicted SNOs for the next 14.0 days since TLE Epoch: 2/6/2021
Index Date Time (GOES-16) GOES-16 Lat,Lon AQUA Lat,Lon Distance(km) Time Diff (sec)
1 02/06/2021 18:23:06 -0.01, -75.19 0.75, -71.68 400.49 80
2 02/07/2021 06:44:22 0.01, -75.18 0.33, -76.84 187.17 80
3 02/09/2021 06:29:31 0.01, -75.17 -0.28, -73.88 147.71 80
4 02/09/2021 18:50:55 -0.00, -75.18 -0.83, -79.07 442.10 80
5 02/11/2021 06:17:20 0.00, -75.17 -0.90, -70.92 483.45 80
6 02/11/2021 18:38:44 0.00, -75.18 -0.20, -76.11 105.99 80
7 02/13/2021 18:29:13 0.00, -75.19 0.43, -73.15 231.17 80
8 02/14/2021 06:50:29 -0.00, -75.19 0.67, -78.31 355.31 80
9 02/16/2021 06:38:18 -0.00, -75.20 0.04, -75.35 17.27 80
10 02/18/2021 06:23:27 -0.00, -75.23 -0.59, -72.40 321.32 80
11 02/18/2021 18:44:51 0.01, -75.23 -0.49, -77.59 267.89 80
